Location: El Mouella
(16.4949°N, 9.1594°W)
Time: 02:09:46
(UTC+00:00)

H-2A R/B - Pass Details

Date: 24 September 2020
Orbit: 734 x 836 km, 98.2° (Epoch: 20 October)

Event Time Altitude Azimuth Distance (km) Brightness Sun altitude
Exits shadow 21:03:17 14° 232° (SW) 1,961 4.4 -37.2°
Maximum altitude 21:05:21 18° 262° (W) 1,763 4.4 -37.7°
Drops below altitude 10° 21:08:41 10° 304° (NW) 2,262 5.1 -38.4°
Sets 21:11:42 0° 323° (NW) 3,204 5.8 -39.2°
